[[{"header":{"parameterUnit":"m.s-1","parameterCategory":2,"la1":30.2991,"la2":30.254,"lo1":-89.0895,"lo2":-89.0444,"dy":0.0017,"dx":0.0017,"nx":28,"ny":28,"refTime":"2023-10-28T03:00:00:Z","depth":"0","parameterNumber":2,"parameterNumberName":"U-component_of_CURRENTS"},"data":[0,0,0,0,0,0,0,0,0,0,0,0,0,0,0,0,0,0,0,0,0,0,0,0,0,0,0,0,0,0,0,0,0,0,0,0,0,0,0,0,0,0,0,0,0,0,0,0,0,0,0,0,0,0,0,0,0,0,-0.2285,-0.2285,0,-0.2235,-0.2235,-0.2234,-0.2204,-0.2204,-0.2204,-0.2204,-0.2107,-0.2104,-0.2102,0,0,0,0,0,0,0,0,0,0,0,0,0,-0.2336,-0.2335,-0.2286,-0.2285,-0.2284,-0.2235,-0.2235,-0.2234,-0.2204,-0.2204,-0.2204,-0.2204,-0.2108,-0.2105,-0.2101,0,0,0,0,0,0,0,0,0,0,0,0,0,-0.2302,-0.2335,-0.2286,-0.2264,-0.2262,-0.2236,-0.2235,-0.2234,-0.2204,-0.2204,-0.2204,-0.2204,-0.2109,-0.2105,-0.2101,-0.2079,0,0,-0.2089,-0.2088,0,0,0,0,0,0,0,0,-0.2304,-0.23,-0.2268,-0.2266,-0.2263,-0.2227,-0.2217,-0.218,-0.2204,-0.2225,-0.2204,-0.2204,-0.2143,-0.2137,-0.2126,-0.2074,-0.207,-0.2089,-0.2087,-0.2085,-0.2084,0,0,0,0,0,0,0,-0.2306,-0.2302,-0.2265,-0.2268,-0.2265,-0.2251,-0.2246,-0.2209,-0.2184,-0.2223,-0.2221,-0.2217,-0.2141,-0.213,-0.2124,-0.2068,-0.2089,-0.2086,-0.2083,-0.2082,-0.2032,-0.2033,0,0,0,0,0,0,-0.2315,-0.2304,-0.2266,-0.2263,-0.2285,-0.225,-0.2245,-0.2238,-0.2185,-0.2177,-0.2217,-0.2216,-0.2137,-0.2128,-0.212,-0.2138,-0.2085,-0.2081,-0.2079,-0.2031,-0.2033,-0.2034,0,0,0,0,0,0,-0.2316,-0.2312,-0.2268,-0.2283,-0.2277,-0.2249,-0.2242,-0.2237,-0.2228,-0.2181,-0.2172,-0.2215,-0.2137,-0.2126,-0.2103,-0.2132,-0.208,-0.2076,-0.203,-0.2032,-0.2033,-0.2142,0,0,0,0,0,0,-0.2318,-0.2313,-0.231,-0.2284,-0.2276,-0.2272,-0.2242,-0.2236,-0.2226,-0.2224,-0.2176,-0.2166,-0.2136,-0.2109,-0.2099,-0.2126,-0.2073,-0.2029,-0.2031,-0.2033,-0.2137,-0.2147,-0.2156,0,0,0,0,0,-0.232,-0.2324,-0.231,-0.2306,-0.2274,-0.2273,-0.2268,-0.2247,-0.2226,-0.2236,-0.2201,-0.2168,-0.2114,-0.2107,-0.2095,-0.2121,-0.2028,-0.203,-0.2033,-0.2133,-0.2145,-0.2155,0,0,0,0,0,0,-0.2344,-0.232,-0.2305,-0.23,-0.2294,-0.2269,-0.2267,-0.2251,-0.223,-0.2219,-0.2174,-0.2163,-0.2158,-0.2119,-0.2112,-0.2112,-0.2068,-0.2068,-0.2149,-0.2159,-0.2169,-0.2203,-0.207,0,0,0,0,0,-0.2347,-0.234,-0.2324,-0.2319,-0.2316,-0.229,-0.2283,-0.2272,-0.2249,-0.2239,-0.2206,-0.2172,-0.2157,-0.2142,-0.2117,-0.2108,-0.2072,-0.2118,-0.2127,-0.2136,-0.2156,-0.214,-0.215,-0.2041,-0.2041,-0.2041,0,0,-0.2354,-0.2339,-0.2334,-0.2323,-0.2308,-0.2323,-0.2286,-0.2282,-0.2301,-0.223,-0.2234,-0.22,-0.2161,-0.2164,-0.2158,-0.2135,-0.2141,-0.2138,-0.2146,-0.2162,-0.2143,-0.2154,-0.2164,-0.2042,-0.2042,-0.2042,0,0,-0.2366,-0.2351,-0.2351,-0.2357,-0.2345,-0.2341,-0.2345,-0.2325,-0.2324,-0.2319,-0.2285,-0.2277,-0.2228,-0.223,-0.2219,-0.2261,-0.2192,-0.2239,-0.2312,-0.2296,-0.2305,-0.2313,-0.2255,-0.2257,-0.2242,-0.2242,-0.2243,0,-0.2372,-0.2374,-0.2354,-0.2366,-0.2382,-0.2356,-0.2381,-0.2382,-0.236,-0.2369,-0.2334,-0.2299,-0.2272,-0.2296,-0.232,-0.2286,-0.2241,-0.2275,-0.231,-0.2317,-0.2323,-0.2262,-0.2262,-0.2248,-0.2247,-0.2247,-0.2246,0,-0.2388,-0.24,-0.2406,-0.2416,-0.2435,-0.2451,-0.2461,-0.2475,-0.2461,-0.2455,-0.2462,-0.2421,-0.2405,-0.2398,-0.2373,-0.2409,-0.2349,-0.2326,-0.2287,-0.2341,-0.2272,-0.2271,-0.2256,-0.2254,-0.2252,-0.2251,0,0,-0.2373,-0.241,-0.2412,-0.2446,-0.2467,-0.2491,-0.2534,-0.2571,-0.2593,-0.2573,-0.2593,-0.2591,-0.2556,-0.2543,-0.2505,-0.25,-0.2505,-0.2438,-0.2435,-0.2389,-0.243,-0.2309,-0.2294,-0.2479,-0.248,-0.2481,-0.2354,0,-0.2391,-0.2444,-0.2454,-0.2523,-0.2562,-0.2581,-0.2626,-0.2658,-0.2657,-0.2667,-0.2648,-0.2637,-0.2613,-0.259,-0.2595,-0.2524,-0.251,-0.2539,-0.2377,-0.2372,-0.2266,-0.2293,-0.2201,-0.2075,-0.2353,-0.2352,-0.2352,0,-0.2396,-0.2444,-0.2513,-0.26,-0.2616,-0.2653,-0.2728,-0.2763,-0.2783,-0.2774,-0.277,-0.2724,-0.2729,-0.2679,-0.2618,-0.2629,-0.2552,-0.2492,-0.2485,-0.234,-0.225,-0.2069,-0.2061,-0.2056,-0.2349,-0.2349,-0.235,0,-0.2409,-0.2486,-0.2552,-0.2581,-0.2667,-0.2708,-0.2752,-0.2792,-0.2788,-0.2828,-0.2774,-0.2804,-0.2723,-0.2709,-0.2576,-0.2601,-0.2459,-0.2474,-0.2292,-0.228,-0.2156,-0.2131,-0.2135,-0.2435,-0.2435,-0.2435,-0.2436,0,-0.2428,-0.2481,-0.2565,-0.2606,-0.2672,-0.2739,-0.2775,-0.2822,-0.2823,-0.2759,-0.2811,-0.2715,-0.2717,-0.2612,-0.2579,-0.2402,-0.2456,-0.2309,-0.2251,-0.2185,-0.2166,-0.2117,-0.214,-0.2431,-0.2432,-0.2433,-0.2433,0,-0.2412,-0.2472,-0.2543,-0.2646,-0.267,-0.2717,-0.2738,-0.2724,-0.2765,-0.2668,-0.2657,-0.261,-0.2489,-0.2449,-0.2358,-0.2318,-0.218,-0.2147,-0.2045,-0.1979,-0.1857,-0.1888,-0.18,-0.1757,-0.1979,-0.1976,-0.1973,0,-0.2406,-0.2445,-0.2535,-0.2519,-0.2551,-0.2608,-0.2588,-0.2676,-0.2611,-0.2551,-0.2448,-0.2348,-0.221,-0.2064,-0.201,-0.1934,-0.1962,-0.1795,-0.1863,-0.184,-0.1833,-0.1865,-0.184,-0.1726,-0.1721,-0.1717,-0.1714,0,-0.2363,-0.2383,-0.2406,-0.2392,-0.2381,-0.238,-0.236,-0.2316,-0.2333,-0.2263,-0.2106,-0.2031,-0.1879,-0.1762,-0.1676,-0.1638,-0.1773,-0.171,-0.173,-0.1676,-0.167,-0.16,-0.1797,-0.1679,-0.1682,-0.1685,-0.1687,-0.1688,-0.2264,-0.2247,-0.223,-0.2201,-0.2177,-0.2095,-0.203,-0.1988,-0.1906,-0.1762,-0.1775,-0.1643,-0.1595,-0.1478,-0.1439,-0.1371,-0.1452,-0.1378,-0.1423,-0.1462,-0.1419,-0.1516,-0.1311,-0.1312,-0.1313,-0.1314,-0.1315,0,-0.2113,-0.2072,-0.2016,-0.1959,-0.1847,-0.191,-0.1799,-0.1696,-0.1545,-0.1502,-0.1396,-0.1312,-0.1223,-0.1232,-0.1175,-0.113,-0.1155,-0.1126,-0.1195,-0.1189,-0.1297,-0.1286,-0.1014,-0.1014,-0.1014,-0.1014,-0.1014,-0.1014,-0.201,-0.1892,-0.1863,-0.1637,-0.1579,-0.14,-0.1311,-0.1212,-0.1154,-0.1023,-0.0997,-0.1,-0.1041,-0.1124,-0.1083,-0.1043,-0.107,-0.1,-0.1057,-0.1188,-0.1218,-0.1247,-0.1244,-0.0968,-0.0968,-0.0913,-0.0913,-0.0912]},{"header":{"parameterUnit":"m.s-1","parameterCategory":2,"la1":30.2991,"la2":30.254,"lo1":-89.0895,"lo2":-89.0444,"dy":0.0017,"dx":0.0017,"nx":28,"ny":28,"refTime":"2023-10-28T03:00:00:Z","depth":"0","parameterNumber":3,"parameterNumberName":"V-component_of_CURRENTS"},"data":[0,0,0,0,0,0,0,0,0,0,0,0,0,0,0,0,0,0,0,0,0,0,0,0,0,0,0,0,0,0,0,0,0,0,0,0,0,0,0,0,0,0,0,0,0,0,0,0,0,0,0,0,0,0,0,0,0,0,-0.0509,-0.0508,0,-0.0394,-0.0392,-0.0391,-0.0359,-0.036,-0.036,-0.0361,-0.0187,-0.0182,-0.0177,0,0,0,0,0,0,0,0,0,0,0,0,0,-0.0528,-0.0529,-0.0509,-0.0508,-0.0506,-0.0394,-0.0392,-0.039,-0.0359,-0.036,-0.0361,-0.0362,-0.0189,-0.0183,-0.0176,0,0,0,0,0,0,0,0,0,0,0,0,0,-0.0476,-0.0529,-0.0509,-0.0478,-0.0475,-0.0394,-0.0392,-0.039,-0.0358,-0.036,-0.0361,-0.0362,-0.0191,-0.0183,-0.0175,-0.0101,0,0,-0.015,-0.0147,0,0,0,0,0,0,0,0,-0.0479,-0.0475,-0.0484,-0.048,-0.0476,-0.0393,-0.0335,-0.0291,-0.0358,-0.0401,-0.0361,-0.0363,-0.0251,-0.0238,-0.0212,-0.0093,-0.0085,-0.015,-0.0145,-0.0141,-0.0139,0,0,0,0,0,0,0,-0.0483,-0.0479,-0.0462,-0.0483,-0.0478,-0.0411,-0.0406,-0.0326,-0.0318,-0.0397,-0.0395,-0.0384,-0.0248,-0.022,-0.0207,-0.0083,-0.015,-0.0143,-0.0138,-0.0135,0.01,0.0101,0,0,0,0,0,0,-0.0509,-0.0483,-0.0465,-0.0458,-0.0482,-0.041,-0.0405,-0.0417,-0.032,-0.0307,-0.0383,-0.0383,-0.0233,-0.0217,-0.0201,-0.0129,-0.0141,-0.0134,-0.0129,0.0098,0.01,0.0101,0,0,0,0,0,0,-0.051,-0.0509,-0.047,-0.0468,-0.0458,-0.041,-0.0423,-0.0414,-0.039,-0.0311,-0.0297,-0.037,-0.0233,-0.0213,-0.013,-0.0122,-0.013,-0.0123,0.0097,0.0099,0.0101,0.0029,0,0,0,0,0,0,-0.0511,-0.0511,-0.052,-0.0471,-0.046,-0.0425,-0.0422,-0.0411,-0.0382,-0.0381,-0.0293,-0.0278,-0.0233,-0.0142,-0.0122,-0.0111,-0.0117,0.0095,0.0098,0.01,0.0029,0.0028,0.0027,0,0,0,0,0,-0.0513,-0.0521,-0.0522,-0.0519,-0.0478,-0.0425,-0.0412,-0.0379,-0.0381,-0.0363,-0.0307,-0.0281,-0.0112,-0.0134,-0.0111,-0.0097,0.0094,0.0097,0.01,0.003,0.0028,0.0027,0,0,0,0,0,0,-0.0527,-0.0517,-0.0517,-0.0522,-0.048,-0.042,-0.0399,-0.0379,-0.0319,-0.032,-0.0254,-0.0234,-0.016,-0.0109,-0.0135,-0.002,-0.0007,0.0,-0.0069,-0.0069,-0.0071,-0.0105,-0.011,0,0,0,0,0,-0.0538,-0.055,-0.0514,-0.0515,-0.0499,-0.045,-0.0423,-0.0401,-0.0346,-0.0323,-0.0262,-0.0193,-0.0125,-0.0085,-0.0013,0.0059,0.0093,0.0083,0.0081,0.0079,0.007,0.0122,0.0124,0.0111,0.0111,0.0111,0,0,-0.0544,-0.0539,-0.0545,-0.0519,-0.0486,-0.046,-0.0437,-0.0399,-0.0376,-0.0308,-0.0252,-0.0189,-0.0105,-0.0034,0.0003,0.0006,0.0105,0.0083,0.0081,0.0072,0.0126,0.0126,0.0127,0.0114,0.0113,0.0113,0,0,-0.0556,-0.0557,-0.0568,-0.0536,-0.0496,-0.0462,-0.0456,-0.0396,-0.0369,-0.0301,-0.0255,-0.0192,-0.0078,-0.0028,0.0014,0.0057,0.0098,0.0084,0.005,0.0101,0.0101,0.0102,0.0151,0.0156,0.0081,0.0081,0.0081,0,-0.0562,-0.0583,-0.0554,-0.0545,-0.0529,-0.0471,-0.0465,-0.0414,-0.0334,-0.0312,-0.0293,-0.0149,-0.0079,-0.0009,0.0002,0.005,0.0084,0.004,0.0094,0.0096,0.0098,0.0148,0.0155,0.0078,0.0078,0.0078,0.0079,0,-0.0577,-0.0589,-0.0584,-0.0572,-0.0539,-0.052,-0.0461,-0.0422,-0.0385,-0.034,-0.0263,-0.0168,-0.0095,-0.0055,-0.0012,0.004,0.0062,0.0083,0.0084,0.0094,0.0148,0.0156,0.0073,0.0074,0.0075,0.0076,0,0,-0.0612,-0.0606,-0.0604,-0.0621,-0.0561,-0.0545,-0.0496,-0.0448,-0.043,-0.0343,-0.0313,-0.0198,-0.0162,-0.0112,-0.0048,0.0003,0.0052,0.0041,0.0045,0.0065,0.0163,0.0195,0.0208,0.0076,0.0077,0.0078,0.0196,0,-0.0638,-0.0666,-0.0636,-0.0646,-0.0659,-0.0594,-0.056,-0.0503,-0.0438,-0.0382,-0.0293,-0.0225,-0.0178,-0.0143,-0.009,0.003,0.0071,0.0018,0.0173,0.0177,0.0184,0.0218,0.0252,0.0361,0.0204,0.0206,0.0207,0,-0.0665,-0.0691,-0.0724,-0.0728,-0.0724,-0.0705,-0.0663,-0.0622,-0.0519,-0.0465,-0.039,-0.0309,-0.021,-0.0176,-0.0008,-0.0044,0.0041,0.0125,0.0132,0.0189,0.0225,0.033,0.0383,0.0482,0.022,0.0219,0.0218,0,-0.0738,-0.0748,-0.0795,-0.0791,-0.0773,-0.077,-0.0744,-0.0656,-0.0613,-0.0516,-0.0463,-0.0352,-0.0268,-0.0158,0.0016,0.0005,0.0203,0.0211,0.0314,0.0317,0.0392,0.0399,0.0537,0.0302,0.0302,0.0301,0.0301,0,-0.0795,-0.0827,-0.084,-0.0867,-0.0905,-0.0855,-0.0848,-0.0797,-0.0696,-0.0627,-0.0521,-0.043,-0.0259,-0.0117,0.0006,0.0198,0.0193,0.0314,0.0352,0.037,0.0375,0.05,0.0528,0.0306,0.0305,0.0304,0.0303,0,-0.087,-0.0876,-0.0936,-0.0948,-0.0946,-0.0976,-0.0912,-0.0879,-0.0788,-0.0687,-0.0652,-0.0467,-0.0277,-0.0108,0.0108,0.0205,0.044,0.0427,0.0436,0.0473,0.0644,0.0666,0.0824,0.0889,0.0558,0.0559,0.0561,0,-0.0919,-0.0961,-0.1009,-0.1023,-0.1029,-0.1042,-0.1017,-0.0939,-0.0869,-0.069,-0.0628,-0.0438,-0.0262,0.005,0.025,0.0464,0.0525,0.0602,0.0581,0.0666,0.0719,0.072,0.0762,0.0661,0.0663,0.0664,0.0665,0,-0.101,-0.1022,-0.1067,-0.1101,-0.1103,-0.1096,-0.1046,-0.1001,-0.0866,-0.0763,-0.0568,-0.0424,-0.0116,0.0167,0.0422,0.0539,0.0673,0.064,0.0739,0.0817,0.082,0.0896,0.0565,0.068,0.0679,0.0677,0.0677,0.0676,-0.1059,-0.1107,-0.1139,-0.1163,-0.1158,-0.1106,-0.106,-0.0965,-0.0858,-0.0628,-0.0524,-0.0235,0.0104,0.0483,0.0608,0.0861,0.0808,0.093,0.0953,0.0949,0.1,0.0691,0.0837,0.0836,0.0836,0.0835,0.0835,0,-0.111,-0.1137,-0.1171,-0.1181,-0.1151,-0.1136,-0.1031,-0.0931,-0.0773,-0.0549,-0.0353,0.0125,0.0445,0.074,0.1065,0.1181,0.1191,0.1223,0.1243,0.1274,0.1028,0.102,0.1199,0.1199,0.1199,0.1199,0.1199,0.1199,-0.1129,-0.1175,-0.1188,-0.1158,-0.1132,-0.1034,-0.0954,-0.0806,-0.0612,-0.0229,0.0108,0.0377,0.0759,0.1171,0.1447,0.1458,0.1552,0.1521,0.1575,0.1408,0.1382,0.1358,0.1359,0.1606,0.1606,0.182,0.1823,0.1824]}],[{"header":{"parameterUnit":"m.s-1","parameterCategory":2,"la1":30.2991,"la2":30.254,"lo1":-89.0895,"lo2":-89.0444,"dy":0.0017,"dx":0.0017,"nx":28,"ny":28,"refTime":"2023-10-28T03:00:00:Z","depth":"2","parameterNumber":2,"parameterNumberName":"U-component_of_CURRENTS"},"data":[0,0,0,0,0,0,0,0,0,0,0,0,0,0,0,0,0,0,0,0,0,0,0,0,0,0,0,0,0,0,0,0,0,0,0,0,0,0,0,0,0,0,0,0,0,0,0,0,0,0,0,0,0,0,0,0,0,0,-0.2168,-0.2167,0,-0.2125,-0.2124,-0.2123,-0.2095,-0.2095,-0.2095,-0.2095,-0.1997,-0.1995,-0.1992,0,0,0,0,0,0,0,0,0,0,0,0,0,-0.2163,-0.2164,-0.2168,-0.2167,-0.2167,-0.2125,-0.2124,-0.2123,-0.2095,-0.2095,-0.2095,-0.2095,-0.1998,-0.1995,-0.1992,0,0,0,0,0,0,0,0,0,0,0,0,0,-0.2146,-0.2164,-0.2168,-0.2149,-0.2147,-0.2125,-0.2124,-0.2123,-0.2095,-0.2095,-0.2095,-0.2095,-0.1999,-0.1995,-0.1991,-0.1969,0,0,-0.198,-0.1978,0,0,0,0,0,0,0,0,-0.2147,-0.2146,-0.2152,-0.215,-0.2148,-0.2117,-0.2086,-0.2069,-0.2095,-0.2113,-0.2095,-0.2095,-0.2033,-0.2026,-0.2017,-0.1964,-0.196,-0.1979,-0.1977,-0.1975,-0.1974,0,0,0,0,0,0,0,-0.2148,-0.2147,-0.2149,-0.2152,-0.2149,-0.2121,-0.2119,-0.2083,-0.2072,-0.2112,-0.211,-0.2108,-0.2031,-0.2021,-0.2014,-0.1958,-0.1979,-0.1976,-0.1974,-0.1972,-0.1916,-0.1917,0,0,0,0,0,0,-0.216,-0.2149,-0.2151,-0.2148,-0.2149,-0.2122,-0.2119,-0.2126,-0.2073,-0.2066,-0.2108,-0.2107,-0.2027,-0.2019,-0.2011,-0.2026,-0.1975,-0.1972,-0.1969,-0.1916,-0.1917,-0.1918,0,0,0,0,0,0,-0.216,-0.2161,-0.2152,-0.2148,-0.2145,-0.2123,-0.2129,-0.2125,-0.2117,-0.2071,-0.2063,-0.2106,-0.2027,-0.2016,-0.1991,-0.202,-0.197,-0.1966,-0.1915,-0.1916,-0.1917,-0.2028,0,0,0,0,0,0,-0.2161,-0.2162,-0.217,-0.2149,-0.2146,-0.2159,-0.2129,-0.2124,-0.2117,-0.2115,-0.2066,-0.2057,-0.2026,-0.1998,-0.1988,-0.2014,-0.1963,-0.1914,-0.1915,-0.1917,-0.2023,-0.2033,-0.2041,0,0,0,0,0,-0.2161,-0.2179,-0.2171,-0.2171,-0.2159,-0.216,-0.2156,-0.2137,-0.2117,-0.2127,-0.209,-0.2059,-0.2001,-0.1995,-0.1983,-0.2009,-0.1913,-0.1915,-0.1917,-0.2019,-0.2031,-0.2041,0,0,0,0,0,0,-0.2187,-0.2177,-0.2169,-0.2184,-0.218,-0.2156,-0.2157,-0.2141,-0.2119,-0.2109,-0.2063,-0.2052,-0.2043,-0.2006,-0.2001,-0.1997,-0.1954,-0.1954,-0.2036,-0.2046,-0.2055,-0.2088,-0.196,0,0,0,0,0,-0.2196,-0.2201,-0.2193,-0.2204,-0.2202,-0.2178,-0.2173,-0.2162,-0.2139,-0.2129,-0.2096,-0.206,-0.2041,-0.2028,-0.1998,-0.199,-0.1947,-0.2,-0.2009,-0.2017,-0.2036,-0.2014,-0.2023,-0.1924,-0.1924,-0.1924,0,0,-0.2208,-0.2202,-0.2206,-0.2209,-0.2196,-0.2209,-0.2175,-0.2173,-0.2188,-0.2119,-0.212,-0.2085,-0.2044,-0.2044,-0.2037,-0.2017,-0.2014,-0.202,-0.2027,-0.2041,-0.2017,-0.2027,-0.2036,-0.1925,-0.1925,-0.1925,0,0,-0.2227,-0.223,-0.2236,-0.2242,-0.2233,-0.2228,-0.2232,-0.2213,-0.2212,-0.2204,-0.2168,-0.2159,-0.2108,-0.2108,-0.2095,-0.2133,-0.206,-0.2112,-0.2187,-0.2166,-0.2175,-0.2182,-0.2104,-0.2104,-0.212,-0.212,-0.212,0,-0.2238,-0.2251,-0.224,-0.2252,-0.2268,-0.2243,-0.2267,-0.2264,-0.2242,-0.2251,-0.2217,-0.218,-0.215,-0.2171,-0.2192,-0.2158,-0.2106,-0.2153,-0.218,-0.2186,-0.2192,-0.2111,-0.2109,-0.2126,-0.2125,-0.2124,-0.2124,0,-0.2258,-0.2277,-0.2284,-0.2296,-0.2318,-0.2332,-0.234,-0.2352,-0.2338,-0.2332,-0.2338,-0.2295,-0.2279,-0.2272,-0.2244,-0.2275,-0.2209,-0.2193,-0.2159,-0.2209,-0.2119,-0.2115,-0.2134,-0.2132,-0.213,-0.2129,0,0,-0.2248,-0.2291,-0.2291,-0.2324,-0.2346,-0.2372,-0.2408,-0.2443,-0.2462,-0.2444,-0.2461,-0.2457,-0.2426,-0.2411,-0.2374,-0.2367,-0.2354,-0.2304,-0.23,-0.2236,-0.2258,-0.2146,-0.2129,-0.2338,-0.2339,-0.2339,-0.2167,0,-0.226,-0.2317,-0.2331,-0.2396,-0.2433,-0.2453,-0.2495,-0.2526,-0.2523,-0.2528,-0.2512,-0.2498,-0.248,-0.2458,-0.2461,-0.2375,-0.2354,-0.2399,-0.2211,-0.2205,-0.2109,-0.2126,-0.2002,-0.1835,-0.2163,-0.2162,-0.2161,0,-0.2251,-0.2309,-0.2378,-0.247,-0.2487,-0.2524,-0.2598,-0.2627,-0.264,-0.263,-0.2629,-0.2583,-0.2579,-0.2538,-0.2457,-0.2479,-0.2389,-0.2321,-0.2312,-0.2174,-0.2088,-0.1843,-0.1814,-0.2154,-0.2154,-0.2155,-0.2155,0,-0.2248,-0.2331,-0.2401,-0.2431,-0.2526,-0.2571,-0.2619,-0.2658,-0.2631,-0.2679,-0.2609,-0.265,-0.2555,-0.2539,-0.2392,-0.2426,-0.2251,-0.2274,-0.2087,-0.2075,-0.1918,-0.1891,-0.222,-0.222,-0.222,-0.2221,-0.2221,0,-0.2238,-0.2277,-0.2409,-0.2452,-0.2497,-0.2601,-0.2611,-0.2659,-0.2657,-0.2582,-0.2641,-0.2537,-0.2541,-0.2421,-0.2386,-0.2192,-0.224,-0.2099,-0.2037,-0.1946,-0.1925,-0.2172,-0.2169,-0.2214,-0.2216,-0.2217,-0.2218,0,-0.213,-0.2241,-0.2292,-0.2442,-0.2477,-0.2494,-0.251,-0.2508,-0.2545,-0.2432,-0.2422,-0.2383,-0.227,-0.2225,-0.2126,-0.2084,-0.1992,-0.1902,-0.1766,-0.1695,-0.1837,-0.1842,-0.1728,-0.1723,-0.1719,-0.1715,-0.1712,0,-0.2075,-0.2098,-0.2219,-0.2236,-0.2275,-0.2318,-0.2324,-0.2407,-0.2363,-0.2298,-0.2209,-0.2099,-0.1979,-0.1809,-0.1762,-0.1678,-0.1771,-0.1496,-0.1581,-0.1842,-0.1793,-0.1805,-0.1815,-0.1389,-0.1383,-0.1379,-0.1375,0,-0.1924,-0.1945,-0.1991,-0.2029,-0.2056,-0.2041,-0.2067,-0.2007,-0.2067,-0.1986,-0.1867,-0.1799,-0.1639,-0.1507,-0.14,-0.136,-0.154,-0.1402,-0.1688,-0.1547,-0.1512,-0.1468,-0.1491,-0.1336,-0.134,-0.1343,-0.1345,-0.1346,-0.1758,-0.1723,-0.1796,-0.1782,-0.1808,-0.1777,-0.1711,-0.1736,-0.1649,-0.1542,-0.1552,-0.1416,-0.14,-0.119,-0.1116,-0.108,-0.1203,-0.1194,-0.1212,-0.1234,-0.124,-0.1202,-0.0964,-0.0966,-0.0967,-0.0968,-0.097,0,-0.1583,-0.1575,-0.1562,-0.1571,-0.151,-0.159,-0.1539,-0.1463,-0.1345,-0.1297,-0.1205,-0.1029,-0.0928,-0.0929,-0.0807,-0.0794,-0.0842,-0.0777,-0.0853,-0.089,-0.0923,-0.092,-0.0556,-0.0555,-0.0554,-0.0553,0,0,-0.1501,-0.1432,-0.1428,-0.1297,-0.1289,-0.1174,-0.1119,-0.1048,-0.0989,-0.0872,-0.0809,-0.0847,-0.0868,-0.0697,-0.0671,-0.0587,-0.0738,-0.056,-0.0887,-0.101,-0.1042,-0.115,-0.1184,0,0,0,0,0]},{"header":{"parameterUnit":"m.s-1","parameterCategory":2,"la1":30.2991,"la2":30.254,"lo1":-89.0895,"lo2":-89.0444,"dy":0.0017,"dx":0.0017,"nx":28,"ny":28,"refTime":"2023-10-28T03:00:00:Z","depth":"2","parameterNumber":3,"parameterNumberName":"V-component_of_CURRENTS"},"data":[0,0,0,0,0,0,0,0,0,0,0,0,0,0,0,0,0,0,0,0,0,0,0,0,0,0,0,0,0,0,0,0,0,0,0,0,0,0,0,0,0,0,0,0,0,0,0,0,0,0,0,0,0,0,0,0,0,0,-0.0467,-0.0466,0,-0.0373,-0.0372,-0.037,-0.0345,-0.0346,-0.0347,-0.0348,-0.0185,-0.018,-0.0175,0,0,0,0,0,0,0,0,0,0,0,0,0,-0.0456,-0.0457,-0.0467,-0.0466,-0.0465,-0.0373,-0.0372,-0.037,-0.0345,-0.0346,-0.0347,-0.0348,-0.0186,-0.018,-0.0174,0,0,0,0,0,0,0,0,0,0,0,0,0,-0.042,-0.0458,-0.0467,-0.0443,-0.044,-0.0373,-0.0372,-0.037,-0.0345,-0.0346,-0.0347,-0.0348,-0.0188,-0.0181,-0.0174,-0.0103,0,0,-0.015,-0.0147,0,0,0,0,0,0,0,0,-0.0422,-0.042,-0.0447,-0.0445,-0.0441,-0.0374,-0.0308,-0.0278,-0.0345,-0.0379,-0.0348,-0.0349,-0.0242,-0.023,-0.0208,-0.0096,-0.0089,-0.015,-0.0145,-0.0142,-0.014,0,0,0,0,0,0,0,-0.0425,-0.0423,-0.0427,-0.0446,-0.0443,-0.038,-0.0377,-0.0302,-0.0302,-0.0376,-0.0374,-0.0367,-0.024,-0.0215,-0.0204,-0.0086,-0.015,-0.0143,-0.0138,-0.0135,0.0088,0.009,0,0,0,0,0,0,-0.0449,-0.0426,-0.043,-0.0425,-0.0437,-0.038,-0.0377,-0.0393,-0.0304,-0.0293,-0.0366,-0.0367,-0.0228,-0.0212,-0.0198,-0.0126,-0.0142,-0.0135,-0.013,0.0087,0.0089,0.009,0,0,0,0,0,0,-0.0449,-0.0451,-0.0434,-0.0423,-0.0417,-0.038,-0.0397,-0.039,-0.0371,-0.0298,-0.0286,-0.0356,-0.0228,-0.0208,-0.0129,-0.0119,-0.0131,-0.0124,0.0085,0.0087,0.0089,0.0029,0,0,0,0,0,0,-0.045,-0.0452,-0.047,-0.0426,-0.0419,-0.0398,-0.0396,-0.0388,-0.0366,-0.0365,-0.0284,-0.0271,-0.0227,-0.014,-0.0121,-0.0109,-0.0118,0.0083,0.0086,0.0089,0.0029,0.0028,0.0028,0,0,0,0,0,-0.045,-0.0468,-0.0472,-0.0472,-0.0446,-0.0398,-0.0387,-0.0362,-0.0365,-0.035,-0.0295,-0.0274,-0.0111,-0.0133,-0.0111,-0.0096,0.0082,0.0085,0.0088,0.0029,0.0028,0.0028,0,0,0,0,0,0,-0.0472,-0.0466,-0.0469,-0.0487,-0.0449,-0.0395,-0.0382,-0.0363,-0.0308,-0.0308,-0.0246,-0.0227,-0.0157,-0.0108,-0.0134,-0.0022,-0.0013,-0.0006,-0.0066,-0.0066,-0.0066,-0.0099,-0.0112,0,0,0,0,0,-0.0487,-0.0503,-0.0472,-0.0484,-0.047,-0.0426,-0.0405,-0.0384,-0.0332,-0.0312,-0.0254,-0.0188,-0.0122,-0.0083,-0.0016,0.0055,0.0085,0.0078,0.0078,0.0077,0.0068,0.0127,0.0129,0.01,0.01,0.01,0,0,-0.0498,-0.0497,-0.0506,-0.0489,-0.0461,-0.0435,-0.0416,-0.0384,-0.0359,-0.0298,-0.0241,-0.0183,-0.0103,-0.0033,0.0003,0.0006,0.0102,0.0081,0.0079,0.007,0.013,0.0132,0.0135,0.0102,0.0102,0.0102,0,0,-0.0517,-0.0527,-0.0541,-0.0511,-0.0475,-0.0442,-0.0437,-0.038,-0.0354,-0.0288,-0.0244,-0.0182,-0.0074,-0.0023,0.0018,0.0063,0.0096,0.0086,0.006,0.0117,0.0119,0.0121,0.0155,0.0161,0.0086,0.0086,0.0086,0,-0.053,-0.0553,-0.0529,-0.052,-0.0502,-0.0451,-0.044,-0.0394,-0.0317,-0.0288,-0.0278,-0.0134,-0.0072,0.0006,0.0013,0.0058,0.0088,0.0049,0.0113,0.0116,0.0119,0.0153,0.016,0.0084,0.0084,0.0084,0.0084,0,-0.0549,-0.0561,-0.0558,-0.0543,-0.0511,-0.049,-0.0431,-0.0388,-0.0352,-0.0308,-0.0227,-0.0143,-0.0068,-0.0033,0.0003,0.0061,0.0073,0.01,0.0102,0.0117,0.0153,0.0162,0.008,0.0081,0.0082,0.0082,0,0,-0.059,-0.0581,-0.0578,-0.0583,-0.0526,-0.0502,-0.0449,-0.039,-0.0366,-0.0285,-0.0246,-0.014,-0.0112,-0.0064,-0.0009,0.0042,0.0086,0.007,0.0075,0.0081,0.0195,0.0211,0.0221,0.012,0.0122,0.0123,0.0206,0,-0.0613,-0.0631,-0.0602,-0.0594,-0.0597,-0.0527,-0.0482,-0.0416,-0.0361,-0.0302,-0.0216,-0.0157,-0.0118,-0.0092,-0.0035,0.0067,0.0106,0.0059,0.0199,0.0202,0.0197,0.0232,0.0212,0.0286,0.0215,0.0216,0.0217,0,-0.0637,-0.0652,-0.0673,-0.0642,-0.0632,-0.0614,-0.0549,-0.0496,-0.0395,-0.0349,-0.0281,-0.0215,-0.0123,-0.0102,0.0053,0.002,0.0089,0.0161,0.0166,0.0206,0.0235,0.0265,0.0304,0.0231,0.023,0.0229,0.0228,0,-0.0699,-0.0689,-0.0721,-0.0711,-0.0668,-0.0657,-0.0616,-0.0525,-0.0476,-0.0392,-0.0353,-0.0243,-0.0178,-0.0072,0.0068,0.0061,0.0234,0.0249,0.0324,0.0325,0.0349,0.035,0.0336,0.0336,0.0336,0.0336,0.0335,0,-0.0744,-0.0756,-0.0764,-0.0786,-0.0791,-0.073,-0.0708,-0.0646,-0.0556,-0.0489,-0.04,-0.0327,-0.0167,-0.0045,0.0061,0.0223,0.023,0.0321,0.0355,0.0328,0.0326,0.0312,0.0308,0.0339,0.0338,0.0337,0.0337,0,-0.0798,-0.0809,-0.0841,-0.0837,-0.0835,-0.0837,-0.0768,-0.0735,-0.065,-0.0564,-0.0536,-0.0374,-0.0208,-0.0056,0.0138,0.0224,0.0368,0.0413,0.0358,0.0383,0.0417,0.0409,0.0508,0.051,0.0511,0.0512,0.0513,0,-0.0832,-0.0863,-0.0897,-0.0916,-0.0924,-0.0913,-0.0889,-0.0801,-0.0748,-0.0576,-0.053,-0.0364,-0.0211,0.0063,0.0234,0.0416,0.0409,0.0487,0.0475,0.0415,0.0438,0.0428,0.0419,0.048,0.0481,0.0481,0.0482,0,-0.0884,-0.0901,-0.0936,-0.0984,-0.0999,-0.0974,-0.0934,-0.0897,-0.0756,-0.0666,-0.049,-0.0359,-0.01,0.0124,0.0336,0.0432,0.0458,0.0501,0.0481,0.0434,0.0395,0.0415,0.0406,0.0485,0.0485,0.0485,0.0485,0.0484,-0.0912,-0.0954,-0.1005,-0.103,-0.1041,-0.1005,-0.0957,-0.0879,-0.077,-0.0569,-0.0461,-0.0222,-0.005,0.0291,0.0411,0.0514,0.0521,0.055,0.0546,0.0543,0.0519,0.0484,0.0585,0.0585,0.0586,0.0586,0.0586,0,-0.0941,-0.0983,-0.1028,-0.1056,-0.1045,-0.1037,-0.0951,-0.086,-0.0709,-0.0527,-0.034,-0.0095,0.0138,0.0304,0.0483,0.0581,0.0553,0.0577,0.053,0.0527,0.0523,0.0496,0.0558,0.0558,0.0558,0.0558,0,0,-0.096,-0.1016,-0.104,-0.1042,-0.1039,-0.0968,-0.09,-0.0764,-0.0606,-0.0391,-0.0206,-0.0,0.0199,0.0318,0.0419,0.0503,0.0482,0.0495,0.051,0.0437,0.0433,0.0503,0.0458,0,0,0,0,0]}],[{"header":{"parameterUnit":"m.s-1","parameterCategory":2,"la1":30.2991,"la2":30.254,"lo1":-89.0895,"lo2":-89.0444,"dy":0.0017,"dx":0.0017,"nx":28,"ny":28,"refTime":"2023-10-28T03:00:00:Z","depth":"4","parameterNumber":2,"parameterNumberName":"U-component_of_CURRENTS"},"data":[0,0,0,0,0,0,0,0,0,0,0,0,0,0,0,0,0,0,0,0,0,0,0,0,0,0,0,0,0,0,0,0,0,0,0,0,0,0,0,0,0,0,0,0,0,0,0,0,0,0,0,0,0,0,0,0,0,0,-0.0656,-0.0656,0,-0.068,-0.0681,-0.0681,-0.0732,-0.0733,-0.0734,-0.0735,-0.0755,-0.0755,-0.0754,0,0,0,0,0,0,0,0,0,0,0,0,0,-0.0616,-0.0617,-0.0656,-0.0656,-0.0656,-0.068,-0.0681,-0.0681,-0.0732,-0.0733,-0.0734,-0.0735,-0.0755,-0.0755,-0.0754,0,0,0,0,0,0,0,0,0,0,0,0,0,-0.0638,-0.0617,-0.0656,-0.0684,-0.0686,-0.068,-0.0681,-0.0681,-0.0732,-0.0733,-0.0734,-0.0736,-0.0755,-0.0755,-0.0754,-0.0725,0,0,-0.0753,-0.0753,0,0,0,0,0,0,0,0,-0.0636,-0.0639,-0.0679,-0.0682,-0.0684,-0.0703,-0.0674,-0.0695,-0.0731,-0.0716,-0.0735,-0.0736,-0.0735,-0.0737,-0.074,-0.0726,-0.0727,-0.0753,-0.0753,-0.0752,-0.0752,0,0,0,0,0,0,0,-0.0635,-0.0638,-0.0667,-0.0679,-0.0682,-0.0682,-0.0687,-0.0678,-0.0719,-0.0717,-0.0721,-0.0721,-0.0737,-0.0741,-0.0741,-0.0727,-0.0753,-0.0753,-0.0752,-0.0752,-0.0792,-0.0793,0,0,0,0,0,0,-0.063,-0.0637,-0.0666,-0.0668,-0.0662,-0.0681,-0.0687,-0.0697,-0.0719,-0.0723,-0.0719,-0.0723,-0.0741,-0.0742,-0.0742,-0.0792,-0.0752,-0.0752,-0.0752,-0.079,-0.0792,-0.0793,0,0,0,0,0,0,-0.0629,-0.0632,-0.0665,-0.0651,-0.0655,-0.0681,-0.0691,-0.0697,-0.0717,-0.0721,-0.0725,-0.0736,-0.0742,-0.0743,-0.0738,-0.079,-0.0752,-0.0751,-0.0789,-0.0791,-0.0793,-0.0838,0,0,0,0,0,0,-0.0628,-0.0632,-0.0647,-0.0651,-0.0656,-0.0675,-0.069,-0.0696,-0.0713,-0.0718,-0.0735,-0.0738,-0.0743,-0.0738,-0.0737,-0.0789,-0.0751,-0.0787,-0.079,-0.0792,-0.0835,-0.0841,-0.0847,0,0,0,0,0,-0.0626,-0.064,-0.0647,-0.0651,-0.0672,-0.0675,-0.0678,-0.0701,-0.0713,-0.0723,-0.0725,-0.0738,-0.0756,-0.0737,-0.0736,-0.0789,-0.0786,-0.0789,-0.0792,-0.0832,-0.084,-0.0847,0,0,0,0,0,0,-0.0612,-0.0646,-0.0655,-0.0673,-0.0679,-0.0684,-0.0694,-0.0704,-0.0714,-0.0723,-0.0726,-0.0728,-0.0754,-0.0753,-0.0733,-0.081,-0.0785,-0.0788,-0.0816,-0.0823,-0.0829,-0.0884,-0.0751,0,0,0,0,0,-0.0618,-0.0654,-0.0659,-0.0675,-0.0676,-0.0685,-0.0692,-0.0706,-0.0709,-0.0717,-0.0727,-0.0744,-0.0762,-0.0774,-0.0783,-0.0802,-0.0806,-0.0845,-0.0851,-0.0856,-0.0901,-0.0886,-0.0895,-0.0803,-0.0803,-0.0803,0,0,-0.0617,-0.0639,-0.0658,-0.0677,-0.0682,-0.0693,-0.0694,-0.0707,-0.0731,-0.0714,-0.0748,-0.0754,-0.0767,-0.0801,-0.0817,-0.0809,-0.0888,-0.086,-0.0864,-0.0908,-0.089,-0.0899,-0.0907,-0.0805,-0.0805,-0.0805,0,0,-0.0623,-0.0648,-0.0675,-0.068,-0.0695,-0.0706,-0.0711,-0.0722,-0.0747,-0.0762,-0.0772,-0.0807,-0.0816,-0.0856,-0.0872,-0.0914,-0.0912,-0.0921,-0.1004,-0.0988,-0.0995,-0.1002,-0.1032,-0.1041,-0.0933,-0.0933,-0.0933,0,-0.0607,-0.0654,-0.0677,-0.0688,-0.0705,-0.0713,-0.0731,-0.0748,-0.0762,-0.0784,-0.0784,-0.0849,-0.0858,-0.0926,-0.0961,-0.0934,-0.0928,-0.0971,-0.0995,-0.1002,-0.1008,-0.1037,-0.1046,-0.0935,-0.0935,-0.0935,-0.0935,0,-0.0634,-0.0663,-0.0671,-0.0709,-0.0729,-0.0742,-0.0766,-0.0793,-0.0822,-0.084,-0.0907,-0.093,-0.0979,-0.0996,-0.0998,-0.1068,-0.1052,-0.0991,-0.0974,-0.1019,-0.1048,-0.1057,-0.0939,-0.0938,-0.0937,-0.0937,0,0,-0.0588,-0.0677,-0.0676,-0.0709,-0.0745,-0.0762,-0.081,-0.0854,-0.0897,-0.0933,-0.1002,-0.1066,-0.109,-0.1115,-0.1132,-0.1153,-0.1198,-0.1109,-0.1107,-0.114,-0.1193,-0.1071,-0.1069,-0.1118,-0.112,-0.1121,-0.12,0,-0.059,-0.0648,-0.0696,-0.0744,-0.0768,-0.081,-0.0859,-0.0904,-0.0947,-0.1006,-0.1065,-0.1126,-0.1128,-0.1175,-0.1195,-0.1193,-0.1222,-0.1186,-0.1148,-0.1149,-0.1032,-0.1074,-0.1126,-0.1207,-0.1209,-0.121,-0.1211,0,-0.0589,-0.0634,-0.07,-0.0789,-0.0804,-0.0847,-0.0943,-0.0984,-0.1058,-0.1094,-0.1168,-0.1198,-0.1292,-0.1261,-0.1311,-0.1278,-0.1264,-0.1257,-0.1257,-0.1142,-0.1042,-0.115,-0.1227,-0.1226,-0.1225,-0.1224,-0.1223,0,-0.0566,-0.0634,-0.0707,-0.0727,-0.082,-0.0878,-0.0937,-0.1015,-0.1072,-0.1161,-0.1219,-0.1287,-0.1359,-0.1342,-0.1347,-0.1324,-0.137,-0.1311,-0.1204,-0.1197,-0.1263,-0.1255,-0.1341,-0.1341,-0.1341,-0.1341,-0.1341,0,-0.0565,-0.061,-0.0707,-0.0739,-0.0828,-0.0888,-0.0989,-0.105,-0.1147,-0.1215,-0.1274,-0.1344,-0.1378,-0.1402,-0.1373,-0.1322,-0.1377,-0.1254,-0.1206,-0.1282,-0.1276,-0.127,-0.1261,-0.1344,-0.1343,-0.1343,-0.1342,0,-0.0569,-0.0616,-0.069,-0.0793,-0.0829,-0.0901,-0.1033,-0.1089,-0.1183,-0.1284,-0.1326,-0.1412,-0.1418,-0.1429,-0.1419,-0.1358,-0.1311,-0.1273,-0.1408,-0.1361,-0.1158,-0.1151,-0.1183,-0.1179,-0.1176,-0.1173,-0.1171,0,-0.0584,-0.0629,-0.0736,-0.0774,-0.0838,-0.0937,-0.0998,-0.1103,-0.1167,-0.1304,-0.1351,-0.1413,-0.1441,-0.1349,-0.1343,-0.1279,-0.124,-0.1247,-0.1183,-0.1191,-0.1141,-0.1139,-0.1135,-0.1166,-0.1165,-0.1164,-0.1164,0,-0.0606,-0.0657,-0.0712,-0.0794,-0.0861,-0.0941,-0.1044,-0.1093,-0.1202,-0.1304,-0.1328,-0.1317,-0.1323,-0.1274,-0.1236,-0.118,-0.1255,-0.1213,-0.1219,-0.1159,-0.1171,-0.1124,-0.1125,-0.1153,-0.1154,-0.1155,-0.1156,0,-0.0601,-0.0652,-0.071,-0.0785,-0.0858,-0.0913,-0.0981,-0.1039,-0.1101,-0.1251,-0.1246,-0.1267,-0.1318,-0.1224,-0.1177,-0.1117,-0.1088,-0.1056,-0.1069,-0.1081,-0.0999,-0.0995,-0.0908,0,0,0,0,0,-0.057,-0.0626,-0.0692,-0.0745,-0.0823,-0.0863,-0.0984,-0.1043,-0.1162,-0.1147,-0.1192,-0.1169,-0.1104,-0.1107,-0.1013,-0.1118,-0.1092,-0.1007,-0.1064,-0.1092,-0.1105,-0.1009,0,0,0,0,0,0,-0.0526,-0.0613,-0.066,-0.0682,-0.0718,-0.0784,-0.0855,-0.0941,-0.094,-0.1057,-0.1012,-0.1087,-0.1022,-0.1115,-0.0979,-0.098,-0.0991,-0.1019,-0.1015,-0.1085,-0.1096,-0.1107,-0.1013,0,0,0,0,0]},{"header":{"parameterUnit":"m.s-1","parameterCategory":2,"la1":30.2991,"la2":30.254,"lo1":-89.0895,"lo2":-89.0444,"dy":0.0017,"dx":0.0017,"nx":28,"ny":28,"refTime":"2023-10-28T03:00:00:Z","depth":"4","parameterNumber":3,"parameterNumberName":"V-component_of_CURRENTS"},"data":[0,0,0,0,0,0,0,0,0,0,0,0,0,0,0,0,0,0,0,0,0,0,0,0,0,0,0,0,0,0,0,0,0,0,0,0,0,0,0,0,0,0,0,0,0,0,0,0,0,0,0,0,0,0,0,0,0,0,-0.0053,-0.0053,0,-0.0054,-0.0054,-0.0054,-0.0032,-0.0031,-0.0031,-0.003,-0.0012,-0.0012,-0.0012,0,0,0,0,0,0,0,0,0,0,0,0,0,-0.0053,-0.0053,-0.0053,-0.0053,-0.0053,-0.0054,-0.0054,-0.0054,-0.0032,-0.0031,-0.0031,-0.003,-0.0012,-0.0012,-0.0012,0,0,0,0,0,0,0,0,0,0,0,0,0,-0.0054,-0.0053,-0.0053,-0.0041,-0.004,-0.0054,-0.0054,-0.0054,-0.0032,-0.0031,-0.003,-0.0029,-0.0012,-0.0012,-0.0012,-0.0033,0,0,-0.0013,-0.0013,0,0,0,0,0,0,0,0,-0.0054,-0.0054,-0.0043,-0.0042,-0.0041,-0.0041,-0.0048,-0.0046,-0.0033,-0.0036,-0.003,-0.0029,-0.002,-0.0019,-0.0023,-0.0032,-0.0032,-0.0013,-0.0013,-0.0013,-0.0013,0,0,0,0,0,0,0,-0.0054,-0.0054,-0.0054,-0.0043,-0.0042,-0.0044,-0.0043,-0.0048,-0.0034,-0.0036,-0.0034,-0.0033,-0.0019,-0.0023,-0.0023,-0.0031,-0.0013,-0.0013,-0.0013,-0.0013,-0.0018,-0.0018,0,0,0,0,0,0,-0.0053,-0.0054,-0.0054,-0.0054,-0.0044,-0.0044,-0.0043,-0.0043,-0.0034,-0.0032,-0.0034,-0.0032,-0.0023,-0.0022,-0.0022,-0.0027,-0.0013,-0.0013,-0.0013,-0.0018,-0.0018,-0.0018,0,0,0,0,0,0,-0.0053,-0.0053,-0.0054,-0.0054,-0.0054,-0.0045,-0.0045,-0.0043,-0.0047,-0.0033,-0.003,-0.0039,-0.0023,-0.0022,-0.0023,-0.0027,-0.0013,-0.0013,-0.0018,-0.0018,-0.0018,-0.005,0,0,0,0,0,0,-0.0053,-0.0053,-0.0057,-0.0053,-0.0054,-0.0066,-0.0046,-0.0044,-0.0048,-0.0045,-0.0037,-0.0034,-0.0022,-0.0023,-0.0023,-0.0027,-0.0013,-0.0018,-0.0018,-0.0018,-0.0049,-0.0051,-0.0053,0,0,0,0,0,-0.0053,-0.0062,-0.0057,-0.0057,-0.0058,-0.0067,-0.0068,-0.0059,-0.0049,-0.0057,-0.0045,-0.0034,-0.0023,-0.0024,-0.0024,-0.0027,-0.0018,-0.0018,-0.0018,-0.0048,-0.005,-0.0053,0,0,0,0,0,0,-0.0065,-0.006,-0.0055,-0.0062,-0.0066,-0.0063,-0.0069,-0.0065,-0.0064,-0.006,-0.0043,-0.004,-0.0043,-0.0031,-0.0033,-0.0027,-0.0016,-0.0016,-0.0038,-0.004,-0.0042,-0.0038,-0.0014,0,0,0,0,0,-0.007,-0.0076,-0.0072,-0.008,-0.008,-0.0077,-0.008,-0.0077,-0.0074,-0.0072,-0.0065,-0.0052,-0.0046,-0.004,-0.0037,-0.0039,-0.0012,-0.0038,-0.004,-0.0042,-0.0037,-0.0008,-0.0007,-0.0018,-0.0018,-0.0018,0,0,-0.0078,-0.0077,-0.008,-0.0084,-0.0083,-0.0098,-0.0076,-0.0086,-0.0097,-0.0072,-0.0082,-0.0068,-0.005,-0.0049,-0.0048,-0.0038,-0.0022,-0.0042,-0.0044,-0.0038,-0.0008,-0.0007,-0.0006,-0.0018,-0.0018,-0.0018,0,0,-0.0101,-0.0094,-0.0107,-0.0114,-0.0118,-0.0117,-0.0121,-0.0122,-0.0117,-0.0129,-0.0106,-0.0089,-0.0091,-0.0067,-0.0057,-0.0068,-0.004,-0.0069,-0.0071,-0.0044,-0.0042,-0.0041,0.0004,0.001,-0.0063,-0.0063,-0.0063,0,-0.011,-0.0128,-0.0115,-0.0133,-0.0146,-0.0127,-0.0153,-0.0147,-0.015,-0.0144,-0.0135,-0.0109,-0.0096,-0.0075,-0.0073,-0.0073,-0.0048,-0.0066,-0.0046,-0.0044,-0.0042,0.0004,0.001,-0.0065,-0.0064,-0.0064,-0.0064,0,-0.0146,-0.0163,-0.0172,-0.0188,-0.0199,-0.0218,-0.021,-0.021,-0.0201,-0.0191,-0.0173,-0.0143,-0.0122,-0.0112,-0.0098,-0.0073,-0.0057,-0.0059,-0.0042,-0.0043,0.0006,0.0013,-0.0067,-0.0066,-0.0066,-0.0065,0,0,-0.0157,-0.0192,-0.0195,-0.0219,-0.0233,-0.0248,-0.0254,-0.0254,-0.0246,-0.023,-0.0213,-0.0187,-0.0157,-0.0142,-0.0111,-0.0075,-0.0037,-0.0062,-0.006,-0.0018,0.0037,0.0037,0.0046,-0.0041,-0.004,-0.0039,0.0069,0,-0.019,-0.0243,-0.0248,-0.03,-0.0328,-0.0316,-0.032,-0.0314,-0.0293,-0.0267,-0.0213,-0.019,-0.0172,-0.015,-0.0117,-0.0053,-0.002,-0.0065,0.0035,0.0038,0.0037,0.0053,-0.0036,0.0075,0.0077,0.0078,0.0079,0,-0.0222,-0.0258,-0.0319,-0.0358,-0.0365,-0.0391,-0.039,-0.039,-0.0338,-0.0313,-0.0269,-0.0226,-0.0159,-0.0149,-0.0044,-0.0075,-0.0028,0.0023,0.0028,0.0044,0.0052,0.0076,0.0093,0.0092,0.0091,0.009,0.0089,0,-0.0248,-0.0304,-0.0359,-0.0378,-0.0413,-0.0431,-0.0438,-0.0409,-0.0392,-0.0334,-0.0305,-0.0231,-0.0177,-0.0112,-0.0012,-0.0029,0.0111,0.0098,0.0145,0.0146,0.0127,0.0125,0.0156,0.0156,0.0156,0.0156,0.0155,0,-0.0287,-0.0329,-0.038,-0.0414,-0.0465,-0.047,-0.0486,-0.0472,-0.0424,-0.0392,-0.0332,-0.0275,-0.0168,-0.0076,-0.0005,0.0105,0.0113,0.0155,0.0173,0.0113,0.0108,0.0134,0.013,0.016,0.0159,0.0158,0.0157,0,-0.032,-0.0347,-0.0414,-0.0467,-0.0486,-0.0523,-0.0531,-0.0519,-0.0475,-0.0426,-0.0405,-0.0293,-0.0168,-0.0058,0.0081,0.0121,0.0223,0.025,0.0204,0.0216,0.024,0.0233,0.0318,0.0319,0.0319,0.032,0.0321,0,-0.0343,-0.0384,-0.0462,-0.0496,-0.0531,-0.0571,-0.0579,-0.0551,-0.0532,-0.043,-0.0404,-0.0272,-0.0191,0.0026,0.012,0.0266,0.0267,0.0316,0.0254,0.0247,0.0256,0.0248,0.024,0.0322,0.0322,0.0322,0.0322,0,-0.0391,-0.0418,-0.0472,-0.0544,-0.0582,-0.0611,-0.0626,-0.0607,-0.0543,-0.0508,-0.0371,-0.0249,-0.0105,0.0043,0.016,0.0252,0.0286,0.0324,0.0322,0.0264,0.0253,0.0259,0.0251,0.0325,0.0325,0.0324,0.0324,0,-0.0412,-0.0462,-0.052,-0.0584,-0.0627,-0.0635,-0.0637,-0.059,-0.0552,-0.0439,-0.0389,-0.0224,-0.0123,0.0037,0.0144,0.0242,0.0245,0.0253,0.0255,0.0253,0.0187,0.016,0.023,0,0,0,0,0,-0.0419,-0.0479,-0.0548,-0.0607,-0.0645,-0.0665,-0.0656,-0.0636,-0.0576,-0.0479,-0.0428,-0.0287,-0.0088,0.0003,0.0101,0.0121,0.0235,0.0234,0.0237,0.0339,0.0336,0.0268,0,0,0,0,0,0,-0.0421,-0.05,-0.055,-0.0603,-0.0642,-0.067,-0.0659,-0.0618,-0.0556,-0.0481,-0.0369,-0.0292,-0.0102,-0.0147,0.0094,0.0124,0.0133,0.033,0.0331,0.0341,0.0338,0.0336,0.0265,0,0,0,0,0]}]]